Torna al catalogo

CZ-2C DEB

AttivoSSO
NORAD 28484·DEBRIS·🇨🇳 China

Lanciato Nov 18, 2004 da Xichang Satellite Launch Center

Loading…

Prossimi Passaggi (prossime 24 ore)

TLE

AggiornatoSource: Space-Track

Epoca: Sep 14, 2026, 12:00 UTC

1 28484U 04046F   26257.50054860  .00002269  00000-0  44755-3 0  9997
2 28484  98.3652 340.2528 0072454 339.1320  33.2216 14.61855228146592

Traccia CZ-2C DEB in tempo reale con AllMySat

Download on the App Store